Regional Weather Roundup
Issued by NWS Midland/Odessa, TX

Skip options and go directly to product.
Home | Oldest Version | Next Version | Current Version | All | Text Only | Save Text | Print | Product List | Glossary On

Skip product version selection by date and time.   
724
ASUS44 KMAF 291510
RWRMAF
MIDLAND AREA WEATHER ROUNDUP
NATIONAL WEATHER SERVICE MIDLAND TX
1000 AM CDT MON JUN 29 2015

...IN SOUTHWEST TEXAS AND SOUTHEAST NEW MEXICO...

CITY           SKY/WX    TMP DP  RH WIND       PRES   REMARKS
ALPINE         SUNNY     77  60  55 CALM      30.23S
ANDREWS        FAIR      81  64  55 SW9       30.11S
ARTESIA        SUNNY     82  52  34 VRB6      30.12S
BIG SPRING     SUNNY     82  66  58 S9        30.12S
CARLSBAD       SUNNY     82  55  39 NE6       30.10R
DRYDEN         NOT AVBL
FORT STOCKTON  SUNNY     79  66  64 VRB6      30.09S
GUAD PASS      SUNNY     72  51  47 SW3       30.25R
HOBBS          MOSUNNY   81  63  54 S8        30.14R
MARFA          SUNNY    N/A N/A N/A CALM      30.22S
MIDLAND AIRPK  SUNNY     82  65  56 SW8       30.10S
MIDLAND INTL   SUNNY     80  66  62 S8        30.10R
ODESSA         SUNNY     80  66  62 S9        30.11R
PECOS          SUNNY     78  63  61 N5        30.07S
PRESIDIO       FAIR      82  63  52 CALM      30.08S
SEMINOLE       SUNNY     82  63  51 SW7       30.12
SNYDER         PTSUNNY   77  69  77 S6        30.11R
WINK           SUNNY     82  66  58 SE7       30.07S
$$
...OTHER STATIONS IN TEXAS...

CITY           SKY/WX    TMP DP  RH WIND       PRES   REMARKS
ABILENE        CLOUDY    81  70  69 SW10      30.07S
AMARILLO       MOSUNNY   78  60  53 N13       30.11R
AUSTIN         MOSUNNY   81  75  82 S10       30.05R
BROWNSVILLE    MOSUNNY   86  76  71 S13       30.01F
CORPUS CHRISTI CLOUDY    85  76  74 S13       30.02S
DALLAS FTW     PTSUNNY   84  72  67 SW9       30.00R
DEL RIO        MOSUNNY   82  73  74 E9        30.01S
EL PASO        MOSUNNY   80  47  31 VRB3      30.13R
HOUSTON INT    PTSUNNY   85  75  72 SW9       30.05S
LUBBOCK        PTSUNNY   79  60  52 SW8       30.11R
SAN ANGELO     MOSUNNY   81  71  71 SW7       30.08R
SAN ANTONIO    MOSUNNY   82  72  71 S9        30.06R
WACO           SUNNY     84  74  71 SW10      30.03R
WICHITA FALLS  NOT AVBL
$$
...OTHER LOCATIONS IN NEW MEXICO...

CITY           SKY/WX    TMP DP  RH WIND       PRES   REMARKS
ALAMAGORDO     MOSUNNY   81  46  30 CALM      30.17R
ALBUQUERQUE    MOSUNNY   75  47  36 NW5       30.26R
CANNON AFB     NOT AVBL
CLOVIS         SUNNY     79  57  47 NE12      30.16R
HOLLOMAN AFB   MOSUNNY   80  51  36 VRB1      30.14S
ROSWELL        SUNNY     78  57  48 N10       30.11S
RUIDOSO        SUNNY     72  48  43 NW7       30.35S
SANTA FE       SUNNY     73  45  36 N12       30.32R
TRUTH OR CONSE SUNNY     79  47  32 S5        30.18F
TUCUMCARI      SUNNY     80  53  39 VRB3      30.15S
$$

USA.gov is the U.S. government's official web portal to all federal, state and local government web resources and services.